This is the latest recevied weather packets stored in our database for station/object AB4KY. If no packets are shown the sender has not sent any weather packets the latest 10 day(s).
| Time | Temp. | Humidity | Pressure | Rain* | Wind** | Luminosity | Snow |
|---|---|---|---|---|---|---|---|
| 1777656042 | 14.44° C | 60% | 1012.6 hPa | 0 mm | - | 602 W/m² | - |
| 1777655738 | 13.89° C | 61% | 1012.6 hPa | 0 mm | - | 252 W/m² | - |
| 1777655435 | 13.33° C | 62% | 1012.8 hPa | 0 mm | - | 261 W/m² | - |
| 1777655132 | 13.33° C | 65% | 1012.6 hPa | 0 mm | - | 143 W/m² | - |
| 1777654829 | 13.33° C | 62% | 1012.5 hPa | 0 mm | - | 191 W/m² | - |
| 1777654527 | 14.44° C | 56% | 1012.5 hPa | 0 mm | - | 114 W/m² | - |
| 1777654224 | 15° C | 61% | 1012.4 hPa | 0 mm | - | 794 W/m² | - |
| 1777653922 | 14.44° C | 60% | 1012.3 hPa | 0 mm | - | 697 W/m² | - |
| 1777653618 | 13.33° C | 63% | 1012.6 hPa | 0 mm | - | 208 W/m² | - |
| 1777653315 | 12.78° C | 64% | 1012.5 hPa | 0 mm | - | 232 W/m² | - |
| 1777653012 | 12.78° C | 65% | 1012.6 hPa | 0 mm | - | 146 W/m² | - |
| 1777652708 | 12.78° C | 68% | 1012.5 hPa | 0 mm | - | 81 W/m² | - |
| 1777652405 | 13.33° C | 65% | 1012.6 hPa | 0 mm | - | 51 W/m² | - |
| 1777652102 | 15° C | 61% | 1012.3 hPa | 0 mm | - | 132 W/m² | - |
| 1777651799 | 14.44° C | 65% | 1012.3 hPa | 0 mm | - | 648 W/m² | - |
| 1777651496 | 13.33° C | 68% | 1012.4 hPa | 0 mm | - | 634 W/m² | - |
| 1777651192 | 12.78° C | 70% | 1012.5 hPa | 0 mm | - | 214 W/m² | - |
| 1777650889 | 12.22° C | 68% | 1012.4 hPa | 0 mm | - | 79 W/m² | - |
| 1777650586 | 12.78° C | 67% | 1012.4 hPa | 0 mm | - | 62 W/m² | - |
| 1777650284 | 13.89° C | 71% | 1012.1 hPa | 0 mm | - | 422 W/m² | - |
| 1777649980 | 12.22° C | 73% | 1012.3 hPa | 0 mm | - | 265 W/m² | - |
| 1777649678 | 12.22° C | 73% | 1012 hPa | 0 mm | - | 73 W/m² | - |
| 1777649373 | 12.22° C | 73% | 1012.2 hPa | 0 mm | - | 73 W/m² | - |
| 1777649071 | 12.78° C | 76% | 1012.1 hPa | 0 mm | - | 234 W/m² | - |
| 1777648768 | 12.22° C | 76% | 1012.1 hPa | 0 mm | - | 172 W/m² | - |
* Rain latest hour (hover to see other rain measurements)
** Current wind speed in m/s (hover to see current wind gust speed)